FW7743 Weather Reports


Display with metric or nautical units.
time (UTC)temp
F
wind
direction
speed
MPH
gust
MPH
rain 1hr
in
rain 24hr
in
rain mn
in
humidity
%
barometer
mb
20260505003725 61 223 0.0 0.0 0.00 0.00 0.00 53 1005.7
20260505003223 60 214 0.0 0.0 0.00 0.00 0.00 53 1006.1
20260505002719 60 200 0.0 0.0 0.00 0.00 0.00 54 1005.9
20260505002217 60 203 0.0 0.0 0.00 0.00 0.00 53 1005.9
20260505001714 60 260 0.0 0.0 0.00 0.00 0.00 55 1005.9
20260505001212 61 240 0.0 0.0 0.00 0.00 0.00 53 1006.1
20260505000708 62 209 1.0 1.0 0.00 0.00 0.00 51 1006.2
20260505000206 62 231 0.0 0.0 0.00 0.00 0.00 51 1005.8
20260504235703 63 252 0.0 0.0 0.00 0.00 0.00 52 1005.7
20260504235158 63 250 0.0 0.0 0.00 0.00 0.00 51 1005.9
20260504234656 64 244 0.0 0.0 0.00 0.00 0.00 49 1005.7
20260504234153 65 218 0.0 0.0 0.00 0.00 0.00 47 1005.6
20260504233649 67 276 1.0 1.0 0.00 0.00 0.00 42 1005.4
20260504233145 67 202 2.0 3.0 0.00 0.00 0.00 41 1005.6
20260504232643 66 230 0.0 0.0 0.00 0.00 0.00 43 1005.7
20260504232140 67 178 3.0 3.0 0.00 0.00 0.00 41 1005.6
20260504231636 68 232 2.0 2.0 0.00 0.00 0.00 39 1005.4
20260504231133 67 203 5.0 7.0 0.00 0.00 0.00 40 1005.7
20260504230629 68 197 3.0 3.0 0.00 0.00 0.00 39 1005.7
20260504230128 68 181 2.0 3.0 0.00 0.00 0.00 40 1005.4
20260504225626 68 189 4.0 5.0 0.00 0.00 0.00 39 1005.3
20260504225121 68 178 1.0 1.0 0.00 0.00 0.00 39 1005.4
20260504224618 68 179 2.0 2.0 0.00 0.00 0.00 39 1005.6
20260504224114 69 234 1.0 1.0 0.00 0.00 0.00 41 1005.6
20260504223612 69 197 4.0 5.0 0.00 0.00 0.00 37 1005.7
20260504223107 69 186 4.0 6.0 0.00 0.00 0.00 37 1005.6
20260504222605 69 344 1.0 1.0 0.00 0.00 0.00 40 1005.8
20260504222102 69 164 3.0 6.0 0.00 0.00 0.00 36 1005.7
20260504221559 69 116 2.0 3.0 0.00 0.00 0.00 38 1005.7
20260504221055 69 179 3.0 5.0 0.00 0.00 0.00 38 1005.9
20260504220552 69 200 4.0 5.0 0.00 0.00 0.00 41 1005.9
20260504220049 69 281 0.0 0.0 0.00 0.00 0.00 40 1005.6
20260504215546 69 191 3.0 3.0 0.00 0.00 0.00 39 1005.7
20260504215043 69 192 2.0 2.0 0.00 0.00 0.00 38 1006.0
20260504214538 70 183 4.0 5.0 0.00 0.00 0.00 38 1005.8
20260504214036 69 248 3.0 3.0 0.00 0.00 0.00 38 1005.8
20260504213532 70 211 2.0 2.0 0.00 0.00 0.00 41 1005.8
20260504213029 71 260 2.0 2.0 0.00 0.00 0.00 39 1006.0
20260504212525 71 268 3.0 5.0 0.00 0.00 0.00 37 1005.8
20260504212022 71 104 5.0 6.0 0.00 0.00 0.00 38 1005.7
20260504211519 71 274 1.0 1.0 0.00 0.00 0.00 37 1005.9
20260504211017 71 118 3.0 5.0 0.00 0.00 0.00 38 1005.8
20260504210513 70 196 4.0 6.0 0.00 0.00 0.00 38 1006.1
20260504210010 70 116 3.0 3.0 0.00 0.00 0.00 39 1006.1
20260504205508 71 48 9.0 13.0 0.00 0.00 0.00 38 1006.0
20260504205006 70 181 6.0 8.0 0.00 0.00 0.00 38 1006.2
20260504204503 70 193 2.0 2.0 0.00 0.00 0.00 39 1006.1
20260504204002 70 174 6.0 10.0 0.00 0.00 0.00 40 1006.0
20260504203500 70 148 2.0 5.0 0.00 0.00 0.00 40 1005.9
20260504202956 70 145 5.0 6.0 0.00 0.00 0.00 39 1006.2
20260504202452 70 168 3.0 5.0 0.00 0.00 0.00 40 1006.1
20260504201949 70 161 4.0 6.0 0.00 0.00 0.00 42 1006.1
20260504201446 70 124 3.0 3.0 0.00 0.00 0.00 40 1006.5
20260504200944 70 197 4.0 6.0 0.00 0.00 0.00 41 1006.6
20260504200440 69 152 5.0 6.0 0.00 0.00 0.00 45 1006.6
20260504195937 70 234 2.0 2.0 0.00 0.00 0.00 41 1006.5
20260504195433 71 156 3.0 5.0 0.00 0.00 0.00 41 1006.5
20260504194930 69 222 3.0 3.0 0.00 0.00 0.00 43 1006.4
20260504194426 69 185 7.0 8.0 0.00 0.00 0.00 42 1006.6
20260504193922 70 74 3.0 5.0 0.00 0.00 0.00 42 1006.8
20260504193420 71 262 2.0 3.0 0.00 0.00 0.00 42 1007.0
20260504192919 70 172 9.0 14.0 0.00 0.00 0.00 42 1006.7
20260504192415 68 110 0.0 1.0 0.00 0.00 0.00 47 1006.9
20260504191914 69 207 3.0 7.0 0.00 0.00 0.00 43 1007.0
20260504191411 68 227 4.0 7.0 0.00 0.00 0.00 44 1006.8
20260504190906 68 99 5.0 7.0 0.00 0.00 0.00 46 1007.0
20260504190402 69 8 3.0 7.0 0.00 0.00 0.00 42 1007.2
20260504185859 69 20 8.0 11.0 0.00 0.00 0.00 43 1007.2
20260504185356 69 127 6.0 8.0 0.00 0.00 0.00 43 1007.1
20260504184852 70 58 4.0 7.0 0.00 0.00 0.00 47 1007.6
20260504184348 69 190 7.0 9.0 0.00 0.00 0.00 44 1007.3
20260504183844 68 79 3.0 5.0 0.00 0.00 0.00 48 1007.1
20260504183342 68 165 4.0 6.0 0.00 0.00 0.00 46 1007.5
20260504182839 69 180 8.0 11.0 0.00 0.00 0.00 45 1007.4
20260504182337 68 113 3.0 5.0 0.00 0.00 0.00 46 1007.3
20260504181833 68 311 1.0 2.0 0.00 0.00 0.00 47 1007.4
20260504181331 69 263 3.0 3.0 0.00 0.00 0.00 46 1007.3
20260504180830 68 208 0.0 1.0 0.00 0.00 0.00 46 1007.4
20260504180327 68 119 4.0 6.0 0.00 0.00 0.00 47 1007.5
20260504175826 68 138 7.0 11.0 0.00 0.00 0.00 46 1007.4
20260504175322 67 71 7.0 8.0 0.00 0.00 0.00 47 1007.5
20260504174820 68 137 6.0 8.0 0.00 0.00 0.00 49 1007.7
20260504174317 68 70 7.0 10.0 0.00 0.00 0.00 47 1007.7
20260504173814 67 26 5.0 9.0 0.00 0.00 0.00 48 1007.7
20260504173311 67 113 8.0 13.0 0.00 0.00 0.00 48 1007.7
20260504172808 67 166 6.0 10.0 0.00 0.00 0.00 49 1007.7
20260504172304 67 192 9.0 13.0 0.00 0.00 0.00 47 1007.6
20260504171800 66 145 0.0 1.0 0.00 0.00 0.00 51 1007.6
20260504171258 66 177 10.0 14.0 0.00 0.00 0.00 49 1007.5
20260504170755 67 120 5.0 6.0 0.00 0.00 0.00 49 1007.8
20260504170252 66 269 5.0 6.0 0.00 0.00 0.00 52 1007.7
20260504160210 64 203 4.0 6.0 0.00 0.00 0.00 53 1008.0
20260504151138 61 170 5.0 6.0 0.00 0.00 0.00 53 1008.8
20260504150635 61 197 10.0 13.0 0.00 0.00 0.00 53 1008.7
20260504150132 61 166 6.0 8.0 0.00 0.00 0.00 53 1008.7
20260504141101 58 203 4.0 6.0 0.00 0.00 0.00 55 1009.2
20260504140557 58 185 8.0 9.0 0.00 0.00 0.00 54 1009.1
20260504130521 54 193 3.0 6.0 0.00 0.00 0.00 59 1009.7
20260504110409 48 184 3.0 5.0 0.00 0.00 0.00 66 1009.8
20260504100326 46 213 5.0 5.0 0.00 0.00 0.00 68 1010.2
20260504081720 44 217 1.0 1.0 0.00 0.00 0.00 71 1010.2
20260504081216 45 212 0.0 1.0 0.00 0.00 0.00 69 1010.3
20260504080712 45 220 1.0 1.0 0.00 0.00 0.00 69 1010.3
20260504080209 45 237 1.0 1.0 0.00 0.00 0.00 69 1010.2
20260504070137 45 218 1.0 1.0 0.00 0.00 0.00 70 1010.5
20260504050525 48 198 1.0 1.0 0.00 0.00 0.00 65 1010.6
20260504050022 49 206 1.0 2.0 0.00 0.00 0.00 65 1010.6
20260504045519 49 271 2.0 2.0 0.00 0.00 0.00 62 1010.6
20260504045014 49 190 4.0 5.0 0.00 0.00 0.00 62 1010.7
20260504044512 49 219 1.0 2.0 0.00 0.00 0.00 63 1010.5
20260504044009 50 175 3.0 3.0 0.00 0.00 0.00 61 1010.4
20260504043506 50 251 0.0 0.0 0.00 0.00 0.00 61 1010.7
20260504043003 50 259 1.0 2.0 0.00 0.00 0.00 62 1010.6
20260504042500 50 207 1.0 2.0 0.00 0.00 0.00 63 1010.7
20260504041957 50 172 2.0 2.0 0.00 0.00 0.00 59 1010.6
20260504041453 50 202 1.0 2.0 0.00 0.00 0.00 60 1010.6
20260504040948 51 223 0.0 0.0 0.00 0.00 0.00 60 1010.7
20260504040447 51 275 3.0 3.0 0.00 0.00 0.00 59 1010.6
20260504035942 51 187 1.0 2.0 0.00 0.00 0.00 59 1010.6
20260504035440 51 166 1.0 1.0 0.00 0.00 0.00 62 1010.6
20260504034936 50 197 0.0 0.0 0.00 0.00 0.00 62 1010.6
20260504034434 50 178 1.0 1.0 0.00 0.00 0.00 61 1010.7
20260504033931 50 181 2.0 2.0 0.00 0.00 0.00 62 1010.7
20260504033429 50 124 2.0 2.0 0.00 0.00 0.00 62 1010.8
20260504032926 51 176 0.0 0.0 0.00 0.00 0.00 61 1010.8
20260504032422 50 222 0.0 0.0 0.00 0.00 0.00 60 1010.7
20260504031919 50 175 2.0 3.0 0.00 0.00 0.00 59 1010.7
20260504031417 51 234 0.0 0.0 0.00 0.00 0.00 61 1010.9
20260504030913 50 166 2.0 3.0 0.00 0.00 0.00 60 1011.1
20260504030410 51 278 1.0 1.0 0.00 0.00 0.00 60 1010.9
20260504025906 50 292 0.0 1.0 0.00 0.00 0.00 61 1011.1
20260504025403 50 187 2.0 2.0 0.00 0.00 0.00 61 1011.3
20260504024900 50 196 3.0 3.0 0.00 0.00 0.00 61 1011.3
20260504024356 50 236 0.0 0.0 0.00 0.00 0.00 63 1011.2
20260504023854 50 132 3.0 3.0 0.00 0.00 0.00 61 1010.9
20260504023350 50 175 0.0 1.0 0.00 0.00 0.00 60 1011.2
20260504022845 50 328 1.0 1.0 0.00 0.00 0.00 63 1011.6
20260504022343 50 282 1.0 1.0 0.00 0.00 0.00 62 1011.5
20260504021839 50 40 1.0 1.0 0.00 0.00 0.00 62 1011.7
20260504021337 51 264 2.0 2.0 0.00 0.00 0.00 61 1011.8
20260504020833 51 15 0.0 0.0 0.00 0.00 0.00 60 1011.8
20260504020330 51 57 3.0 3.0 0.00 0.00 0.00 59 1011.9
20260504015826 50 358 0.0 1.0 0.00 0.00 0.00 61 1011.5
20260504015323 51 326 0.0 0.0 0.00 0.00 0.00 61 1011.8
20260504014819 50 26 0.0 1.0 0.00 0.00 0.00 57 1011.7
20260504014315 50 208 0.0 0.0 0.00 0.00 0.00 62 1011.2
20260504013813 50 42 0.0 1.0 0.00 0.00 0.00 61 1011.4
20260504013311 51 284 1.0 1.0 0.00 0.00 0.00 61 1011.3
20260504012807 51 306 1.0 1.0 0.00 0.00 0.00 60 1011.6
20260504012305 51 340 3.0 3.0 0.00 0.00 0.00 58 1011.2
20260504011802 51 65 0.0 1.0 0.00 0.00 0.00 60 1011.2
20260504011258 50 340 0.0 0.0 0.00 0.00 0.00 58 1011.3
20260504010754 49 214 0.0 0.0 0.00 0.00 0.00 63 1011.3
20260504010250 49 351 0.0 0.0 0.00 0.00 0.00 65 1011.3
20260504005747 49 185 2.0 2.0 0.00 0.00 0.00 64 1011.2
20260504005244 49 244 0.0 0.0 0.00 0.00 0.00 67 1011.2
20260504004741 49 236 0.0 1.0 0.00 0.00 0.00 63 1011.1
20260504004238 49 244 1.0 1.0 0.00 0.00 0.00 66 1011.3